| time (UTC) | temp F | wind direction | speed knots | gust knots | rain 1hr in | rain 24hr in | rain mn in | humidity % | barometer mb |
| 20260507013510 | 51 | 169 | 0.0 | 0.0 | 0.08 | 0.28 | 0.28 | 92 | 1009.6 |
| 20260507010514 | 51 | 169 | 0.0 | 0.0 | 0.07 | 0.24 | 0.24 | 92 | 1009.4 |
| 20260507003513 | 51 | 169 | 0.0 | 0.0 | 0.06 | 0.20 | 0.20 | 92 | 1009.3 |
| 20260507000512 | 52 | 334 | 0.0 | 0.0 | 0.08 | 0.17 | 0.17 | 92 | 1009.1 |
| 20260506233512 | 52 | 264 | 0.9 | 9.6 | 0.09 | 0.14 | 0.14 | 92 | 1008.9 |
| 20260506230511 | 52 | 262 | 1.7 | 13.0 | 0.09 | 0.09 | 0.09 | 92 | 1008.8 |
| 20260506223510 | 52 | 305 | 0.0 | 0.0 | 0.06 | 0.06 | 0.06 | 91 | 1008.7 |
| 20260506220509 | 52 | 211 | 0.0 | 0.0 | 0.01 | 0.01 | 0.01 | 91 | 1008.6 |
| 20260506213514 | 52 | 301 | 0.9 | 10.4 | 0.09 | 0.29 | 0.29 | 91 | 1008.4 |
| 20260506210513 | 53 | 319 | 3.5 | 13.9 | 0.09 | 0.24 | 0.24 | 91 | 1008.1 |
| 20260506203512 | 53 | 256 | 0.9 | 12.2 | 0.08 | 0.20 | 0.20 | 90 | 1008.0 |
| 20260506200512 | 53 | 248 | 1.7 | 12.2 | 0.06 | 0.15 | 0.15 | 90 | 1007.8 |
| 20260506193511 | 53 | 260 | 1.7 | 8.7 | 0.04 | 0.12 | 0.12 | 89 | 1007.5 |
| 20260506190510 | 54 | 316 | 0.0 | 7.8 | 0.03 | 0.09 | 0.09 | 89 | 1007.1 |
| 20260506183509 | 54 | 246 | 0.9 | 8.7 | 0.02 | 0.08 | 0.08 | 89 | 1006.9 |
| 20260506180514 | 55 | 324 | 0.9 | 6.1 | 0.00 | 0.06 | 0.06 | 88 | 1006.4 |
| 20260506173513 | 55 | 229 | 0.0 | 7.8 | 0.01 | 0.06 | 0.06 | 88 | 1006.0 |
| 20260506170512 | 56 | 223 | 1.7 | 9.6 | 0.01 | 0.06 | 0.06 | 88 | 1005.7 |
| 20260506163511 | 56 | 251 | 2.6 | 10.4 | 0.02 | 0.05 | 0.05 | 87 | 1005.8 |
| 20260506153510 | 57 | 244 | 0.0 | 0.0 | 0.03 | 0.03 | 0.03 | 83 | 1005.9 |
| 20260506150509 | 59 | 247 | 0.0 | 0.0 | 0.00 | 0.00 | 0.00 | 79 | 1005.8 |
| 20260506143513 | 63 | 238 | 0.9 | 10.4 | 0.00 | 0.00 | 0.00 | 68 | 1005.4 |
| 20260506140513 | 63 | 308 | 0.0 | 0.9 | 0.00 | 0.00 | 0.00 | 65 | 1004.9 |
| 20260506130511 | 65 | 319 | 0.0 | 3.5 | 0.00 | 0.00 | 0.00 | 63 | 1004.7 |
| 20260506123511 | 66 | 350 | 0.0 | 3.5 | 0.00 | 0.00 | 0.00 | 64 | 1004.6 |
| 20260506120510 | 65 | 261 | 0.0 | 0.0 | 0.00 | 0.00 | 0.00 | 66 | 1004.6 |
| 20260506103512 | 63 | 116 | 0.0 | 0.0 | 0.00 | 0.00 | 0.00 | 71 | 1005.4 |
| 20260506100512 | 62 | 81 | 0.0 | 0.0 | 0.00 | 0.00 | 0.00 | 73 | 1005.4 |
| 20260506093511 | 61 | 273 | 0.9 | 7.8 | 0.00 | 0.00 | 0.00 | 74 | 1005.4 |
| 20260506090510 | 62 | 309 | 0.9 | 6.1 | 0.00 | 0.00 | 0.00 | 75 | 1005.5 |
| 20260506083510 | 61 | 18 | 0.0 | 3.5 | 0.00 | 0.00 | 0.00 | 77 | 1005.5 |
| 20260506080513 | 60 | 78 | 0.0 | 0.0 | 0.00 | 0.00 | 0.00 | 79 | 1005.2 |
| 20260506073513 | 59 | 38 | 0.9 | 5.2 | 0.00 | 0.00 | 0.00 | 80 | 1004.9 |
| 20260506060510 | 55 | 261 | 0.0 | 0.0 | 0.00 | 0.00 | 0.00 | 88 | 1005.2 |
| 20260506050509 | 52 | 248 | 0.0 | 0.0 | 0.00 | 0.00 | 0.00 | 91 | 1005.4 |
| 20260506040512 | 53 | 248 | 0.0 | 0.0 | 0.00 | 0.00 | 0.00 | 91 | 1005.2 |
| 20260506033512 | 53 | 267 | 0.0 | 0.0 | 0.00 | 0.00 | 0.00 | 91 | 1005.3 |
| 20260506023511 | 54 | 271 | 0.0 | 0.0 | 0.00 | 0.00 | 0.00 | 91 | 1006.0 |
| 20260506020510 | 54 | 238 | 0.0 | 0.0 | 0.00 | 0.00 | 0.00 | 91 | 1005.9 |